Stations météo

Publicité
Cannes, France (7684): Température de l'air & dewpoint: 24.03.2020 15:00:00 - 30.03.2020 15:00:00 (CEST)Cannes, France (7684): Température de l'air 5cm: 24.03.2020 15:00:00 - 30.03.2020 15:00:00 (CEST)Cannes, France (7684): Vitesse du vent & gusts: 24.03.2020 15:00:00 - 30.03.2020 15:00:00 (CEST)Cannes, France (7684): Direction du vent: 24.03.2020 15:00:00 - 30.03.2020 15:00:00 (CEST)Cannes, France (7684): reduced air pressure: 24.03.2020 15:00:00 - 30.03.2020 15:00:00 (CEST)Cannes, France (7684): visibility: 24.03.2020 15:00:00 - 30.03.2020 15:00:00 (CEST)Cannes, France (7684): Quantités de précipitations: 24.03.2020 15:00:00 - 30.03.2020 15:00:00 (CEST)
Date & Time tt [°C] td [°C] tt 5cm [°C] ff [km/h] ff [knt] fx [km/h] fx [knt] dd ppp [hPa] vv [km] rr [mm]
30.03.2020 15:00:00 - - - - - - - - - - -
30.03.2020 14:00:00 14,6 10,4 19,2 14 7 20 11 SSE 1013,4 19 0,0
30.03.2020 13:00:00 16,0 9,9 20,1 11 6 18 10 SSE 1013,7 19 0,0
30.03.2020 12:00:00 14,8 11,2 18,0 11 6 16 9 SSE 1013,7 20 0,0
30.03.2020 11:00:00 15,3 11,3 14,7 4 2 15 8 E 1013,6 16 0,0
30.03.2020 10:00:00 13,0 10,9 10,9 5 3 9 5 NNW 1013,0 14 0,0
30.03.2020 09:00:00 10,4 9,3 8,0 5 3 13 7 N 1012,5 13 0,0
30.03.2020 08:00:00 9,0 8,1 6,5 6 4 11 6 N 1012,0 11 0,0
30.03.2020 07:00:00 9,1 8,3 5,7 6 3 9 5 N 1011,5 13 0,0
30.03.2020 06:00:00 9,8 8,7 7,6 5 3 11 6 N 1011,2 15 0,0
30.03.2020 05:00:00 10,1 9,2 7,6 5 3 10 5 N 1011,4 15 0,0
30.03.2020 04:00:00 10,1 9,0 8,1 4 2 9 5 N 1011,5 15 0,0
30.03.2020 03:00:00 10,5 9,4 8,0 4 2 8 4 N 1011,9 15 0,0
30.03.2020 02:00:00 10,5 9,4 7,6 4 2 5 3 N 1012,0 11 0,0
30.03.2020 01:00:00 11,2 9,8 8,5 3 1 5 3 NNE 1012,0 14 0,0
30.03.2020 00:00:00 11,5 9,9 9,2 4 2 8 4 NNE 1012,2 12 0,0
29.03.2020 23:00:00 11,7 9,9 9,2 3 2 7 4 N 1012,2 12 0,0
29.03.2020 22:00:00 11,3 9,9 7,2 5 3 8 5 N 1012,2 13 0,0
29.03.2020 21:00:00 12,0 10,2 8,1 5 3 8 5 S 1011,9 43 0,0
29.03.2020 20:00:00 13,2 10,7 11,8 4 2 8 5 SSE 1011,5 47 0,0
29.03.2020 19:00:00 13,7 10,9 14,4 6 4 12 7 S 1011,5 46 0,0
29.03.2020 18:00:00 14,5 10,9 16,9 9 5 16 9 S 1011,6 48 0,0
29.03.2020 17:00:00 15,7 11,1 21,0 10 5 19 11 S 1011,8 33 0,0
29.03.2020 16:00:00 16,0 11,2 25,2 11 6 22 12 SSE 1012,0 20 0,0
29.03.2020 15:00:00 16,0 11,4 26,0 16 8 24 13 S 1012,5 18 0,0
29.03.2020 14:00:00 16,5 11,0 27,7 15 8 27 14 SSE 1013,0 19 0,0
29.03.2020 13:00:00 16,5 11,2 27,2 16 9 25 14 SSE 1013,1 18 0,0
29.03.2020 12:00:00 16,4 11,1 24,9 12 7 20 11 SSE 1013,4 18 0,0
29.03.2020 11:00:00 15,6 10,8 18,8 9 5 16 9 S 1013,6 16 0,0
29.03.2020 10:00:00 14,3 8,7 9,3 0 0 11 6 N 1013,7 19 0,0
29.03.2020 09:00:00 9,1 6,0 5,5 8 5 16 9 N 1013,5 19 0,0
29.03.2020 08:00:00 6,5 5,0 3,9 8 5 15 8 N 1013,5 18 0,0
29.03.2020 07:00:00 5,8 4,4 3,9 8 4 11 6 N 1013,2 16 0,0
29.03.2020 06:00:00 6,2 4,8 3,3 6 4 10 5 N 1013,3 16 0,0
29.03.2020 05:00:00 6,6 5,1 4,2 5 3 13 7 N 1013,6 15 0,0
29.03.2020 04:00:00 6,9 5,2 5,1 8 4 13 7 N 1013,7 16 0,0
29.03.2020 03:00:00 7,4 5,5 5,1 8 4 12 7 N 1014,1 16 0,0
29.03.2020 02:00:00 7,6 5,6 5,2 7 4 11 6 N 1014,5 16 0,0
29.03.2020 01:00:00 8,4 6,0 4,7 7 4 11 6 N 1014,4 15 0,0
29.03.2020 00:00:00 8,8 6,2 5,4 5 3 10 6 N 1014,5 14 0,0
28.03.2020 23:00:00 9,5 6,8 5,7 6 3 9 5 N 1014,5 14 0,0
28.03.2020 22:00:00 10,8 7,1 5,9 5 3 8 5 NNE 1014,4 16 0,0
28.03.2020 21:00:00 12,4 7,7 6,9 6 3 8 4 N 1014,1 15 0,0
28.03.2020 20:00:00 13,9 7,6 8,8 4 2 11 6 WNW 1013,8 55 0,0
28.03.2020 19:00:00 15,7 8,0 13,1 9 5 15 8 SW 1013,5 58 0,0
28.03.2020 18:00:00 16,5 7,7 16,4 11 6 26 14 S 1013,4 57 0,0
28.03.2020 17:00:00 17,3 9,0 19,7 19 11 27 15 S 1013,6 20 0,0
28.03.2020 16:00:00 18,0 9,1 24,8 19 10 28 15 S 1013,8 19 0,0
28.03.2020 15:00:00 18,1 9,2 27,6 19 11 31 17 S 1014,3 20 0,0
28.03.2020 14:00:00 18,0 9,3 26,0 18 10 32 18 S 1015,0 33 0,0
28.03.2020 13:00:00 16,9 9,6 28,0 18 10 32 17 S 1015,2 19 0,0
28.03.2020 12:00:00 16,9 7,0 28,8 11 6 17 9 SE 1015,4 19 0,0
28.03.2020 11:00:00 16,6 6,4 18,0 6 3 12 6 SE 1015,5 19 0,0
28.03.2020 10:00:00 14,0 6,6 10,5 6 3 11 6 NNE 1015,4 20 0,0
28.03.2020 09:00:00 10,8 5,1 6,0 5 3 10 5 N 1015,3 60 0,0
28.03.2020 08:00:00 7,9 4,7 4,9 4 2 16 9 NNW 1015,5 49 0,0
28.03.2020 07:00:00 8,1 5,0 4,6 5 3 14 8 N 1015,5 52 0,0
28.03.2020 06:00:00 8,7 5,4 5,4 9 5 14 8 N 1015,4 45 0,0
28.03.2020 05:00:00 10,0 5,4 6,3 2 1 13 7 N 1015,6 60 0,0
28.03.2020 04:00:00 10,6 5,4 8,1 4 2 10 5 WNW 1015,7 60 0,0
28.03.2020 03:00:00 10,9 5,4 8,4 4 2 11 6 WNW 1015,7 60 0,0
28.03.2020 02:00:00 12,1 5,0 9,4 7 4 12 7 NNE 1015,8 56 0,0
28.03.2020 01:00:00 11,7 5,6 9,3 7 4 12 6 N 1015,9 60 0,0
28.03.2020 00:00:00 11,8 5,9 9,1 6 3 9 5 NNE 1015,7 39 0,0
27.03.2020 23:00:00 12,2 5,8 9,2 5 3 10 5 SW 1015,2 60 0,0
27.03.2020 22:00:00 12,6 6,0 9,7 0 0 5 3 N 1014,7 42 0,0
27.03.2020 21:00:00 13,5 5,6 10,2 3 1 10 5 WNW 1014,3 60 0,0
27.03.2020 20:00:00 13,4 6,0 11,1 7 4 13 7 S 1013,4 60 0,0
27.03.2020 19:00:00 14,3 5,6 13,9 9 5 26 14 S 1012,5 60 0,0
27.03.2020 18:00:00 16,3 7,8 17,6 14 8 25 14 S 1011,8 56 0,0
27.03.2020 17:00:00 16,7 5,6 19,5 7 4 17 9 S 1011,5 60 0,0
27.03.2020 16:00:00 16,8 3,8 19,1 5 3 14 7 NNW 1011,8 20 0,0
27.03.2020 15:00:00 14,8 3,3 18,1 3 2 10 5 SSW 1012,2 60 0,0
27.03.2020 14:00:00 14,0 5,1 15,1 7 4 12 6 S 1012,3 60 0,0
27.03.2020 13:00:00 13,0 3,9 13,9 4 2 14 8 WNW 1011,8 60 0,0
27.03.2020 12:00:00 12,2 5,1 12,3 6 4 10 5 S 1011,7 20 0,0
27.03.2020 11:00:00 11,3 4,5 10,6 2 1 13 7 ENE 1011,3 20 0,0
27.03.2020 10:00:00 9,7 4,5 7,6 7 4 13 7 NW 1010,9 57 0,0
27.03.2020 09:00:00 8,6 3,8 6,9 4 2 12 7 N 1010,6 56 0,0
27.03.2020 08:00:00 8,0 4,2 6,2 6 3 10 5 NNE 1010,5 60 0,0
27.03.2020 07:00:00 7,8 3,6 6,2 3 2 13 7 NNW 1010,1 60 0,0
27.03.2020 06:00:00 7,2 4,7 6,4 3 2 9 5 NW 1009,8 43 0,0
27.03.2020 05:00:00 7,0 5,1 6,4 2 1 6 3 NNW 1009,8 38 0,0
27.03.2020 04:00:00 6,9 5,4 6,3 0 0 6 3 N 1010,0 36 0,0
27.03.2020 03:00:00 6,8 5,3 6,3 0 0 7 4 N 1010,7 19 0,2
27.03.2020 02:00:00 6,9 4,7 6,0 4 2 5 3 W 1011,1 17 0,0
27.03.2020 01:00:00 7,0 4,5 6,1 0 0 6 3 N 1011,1 26 0,0
27.03.2020 00:00:00 7,3 4,3 6,2 0 0 5 3 N 1011,5 30 0,0
26.03.2020 23:00:00 7,5 3,5 6,1 3 2 6 3 W 1012,0 53 0,0
26.03.2020 22:00:00 7,9 3,5 6,2 0 0 9 5 N 1012,1 50 0,0
26.03.2020 21:00:00 9,0 1,6 6,5 5 3 14 8 ESE 1011,8 56 0,0
26.03.2020 20:00:00 9,1 0,8 7,2 0 0 16 9 N 1011,0 55 0,0
26.03.2020 19:00:00 9,7 1,1 7,9 4 2 25 14 NNE 1010,9 55 0,0
26.03.2020 18:00:00 10,9 -2,9 10,7 7 4 14 8 ENE 1010,3 60 0,0
26.03.2020 17:00:00 10,9 -4,0 13,2 7 4 20 11 S 1009,8 60 0,0
26.03.2020 16:00:00 11,3 -4,4 16,5 12 7 21 12 S 1009,6 59 0,0
26.03.2020 15:00:00 12,3 -3,1 21,3 13 7 24 13 SSE 1009,8 43 0,0
26.03.2020 14:00:00 12,1 -5,0 21,3 12 6 23 12 SSE 1010,4 53 0,0
26.03.2020 13:00:00 12,4 -3,9 21,5 12 6 23 12 SSE 1010,8 60 0,0
26.03.2020 12:00:00 11,9 -7,5 24,4 10 5 15 8 S 1010,9 20 0,0
26.03.2020 11:00:00 10,6 -8,7 8,3 0 0 12 6 N 1010,9 39 0,0
26.03.2020 10:00:00 4,9 -4,1 2,0 5 3 13 7 N 1011,2 37 0,0
26.03.2020 09:00:00 2,2 -5,2 -2,0 8 4 16 8 N 1011,3 30 0,0
26.03.2020 08:00:00 -0,8 -5,4 -2,8 9 5 17 9 N 1011,5 33 0,0
26.03.2020 07:00:00 -0,7 -5,5 -3,8 9 5 16 9 N 1011,4 31 0,0
26.03.2020 06:00:00 -0,4 -5,4 -3,3 6 3 11 6 N 1011,5 33 0,0
26.03.2020 05:00:00 0,0 -5,0 -3,2 6 4 12 6 N 1012,0 31 0,0
26.03.2020 04:00:00 0,2 -4,3 -2,6 5 3 13 7 NNW 1012,5 26 0,0
26.03.2020 03:00:00 0,3 -3,4 -1,8 9 5 14 8 N 1013,3 20 0,0
26.03.2020 02:00:00 1,0 -2,9 -1,4 5 3 15 8 N 1013,9 20 0,0
26.03.2020 01:00:00 1,5 -2,1 -1,8 7 4 16 9 N 1014,4 19 0,0
26.03.2020 00:00:00 1,1 -2,3 -2,2 5 3 10 5 N 1015,0 14 0,0
25.03.2020 23:00:00 2,1 -1,9 -1,5 5 3 11 6 N 1015,2 11 0,0
25.03.2020 22:00:00 3,6 -1,4 -0,2 5 3 15 8 N 1015,4 15 0,0
25.03.2020 21:00:00 5,3 -1,4 1,9 7 4 15 8 NNE 1015,3 13 0,0
25.03.2020 20:00:00 8,8 -7,0 3,4 9 5 25 14 ENE 1014,9 60 0,0
25.03.2020 19:00:00 9,8 -3,9 8,0 10 5 18 10 NNE 1015,0 42 0,0
25.03.2020 18:00:00 11,7 -3,3 14,2 9 5 21 11 WSW 1014,8 53 0,0
25.03.2020 17:00:00 10,4 -1,0 10,5 3 2 21 11 NE 1015,6 51 0,0
25.03.2020 16:00:00 10,2 -3,2 11,2 9 5 32 18 ESE 1016,5 57 0,0
25.03.2020 15:00:00 9,9 -3,8 11,4 16 9 35 19 ESE 1016,8 52 0,0
25.03.2020 14:00:00 10,9 -1,2 13,4 15 8 29 16 SE 1017,2 57 0,0
25.03.2020 13:00:00 10,1 -3,6 12,3 11 6 29 16 E 1017,6 51 0,0
25.03.2020 12:00:00 9,7 -2,9 11,3 16 8 34 18 E 1018,0 55 0,0
25.03.2020 11:00:00 9,1 -1,9 7,4 6 4 18 10 E 1018,6 19 0,0
25.03.2020 10:00:00 5,2 -1,9 3,3 6 3 16 9 NNE 1019,1 40 0,0
25.03.2020 09:00:00 2,8 -2,5 0,8 9 5 18 10 N 1019,2 39 0,0
25.03.2020 08:00:00 1,4 -2,6 -0,4 7 4 15 8 N 1019,4 38 0,0
25.03.2020 07:00:00 0,8 -2,8 -1,5 8 5 14 8 N 1019,3 38 0,0
25.03.2020 06:00:00 0,5 -2,9 -1,5 6 3 14 7 N 1019,6 31 0,0
25.03.2020 05:00:00 0,8 -3,0 -1,0 5 3 17 9 N 1019,9 30 0,0
25.03.2020 04:00:00 1,9 -3,4 0,8 11 6 21 11 N 1020,2 30 0,0
25.03.2020 03:00:00 1,9 -3,0 0,6 12 7 22 12 N 1020,8 19 0,0
25.03.2020 02:00:00 2,0 -2,3 0,8 13 7 22 12 N 1021,2 18 0,0
25.03.2020 01:00:00 2,4 -1,8 0,5 12 7 22 12 N 1021,4 15 0,0
25.03.2020 00:00:00 2,6 -1,0 0,3 9 5 16 9 N 1021,7 13 0,0
24.03.2020 23:00:00 3,1 -0,4 -0,4 6 3 12 6 N 1021,7 10 0,0
24.03.2020 22:00:00 4,3 0,3 1,7 5 3 15 8 NNW 1021,6 10 0,0
24.03.2020 21:00:00 6,0 0,9 3,7 10 5 16 8 N 1021,7 9 0,0
24.03.2020 20:00:00 7,9 -0,1 3,7 6 4 9 5 N 1022,0 34 0,0
24.03.2020 19:00:00 10,2 -1,8 8,9 4 2 13 7 NNE 1021,9 60 0,0
24.03.2020 18:00:00 10,6 -2,8 11,4 8 4 16 8 ENE 1022,3 60 0,0
24.03.2020 17:00:00 10,7 -3,4 12,2 9 5 21 11 ENE 1022,7 60 0,0
24.03.2020 16:00:00 10,7 -4,2 12,2 9 5 19 11 E 1023,4 60 0,0
24.03.2020 15:00:00 - - - - - - - - - - -

tt = Température de l'air
td = dewpoint
tt 5cm = Température de l'air 5cm
ff = Vitesse du vent
fx = gusts
dd = Direction du vent
ppp = reduced air pressure
vv = visibility
rr = Quantités de précipitations

stations d'obs. à proximité